Terminal Aerodrome Forecast
Issued by NWS Chicago, IL

Home | Current Version | Previous Version | Text Only | Print | Product List | Glossary Off
Versions: 1 2 3 4 5 6 7 8 9 10 11 12 13 14 15 16 17 18 19 20 21 22 23 24 25 26 27 28 29 30 31 32 33

000
FTUS43 KLOT 191135
TAFRFD
TAF
KRFD 191135Z 1912/2012 17005KT 2SM BR SCT006 BKN200
      TEMPO 1912/1915 1SM BR BKN004
     FM191500 15008KT 6SM BR SCT015 BKN100
     FM192200 11006KT 6SM -SHRA SCT015 OVC035
     FM200100 10005KT 2SM -RA BR BKN006 OVC015
     FM200400 08007KT 1 1/2SM -RA BR OVC004=

USA.gov is the U.S. government's official web portal to all federal, state and local government web resources and services.